Hourly Data Report for September 11, 2017

All times are specified in Local Standard Time (LST). Add 1 hour to adjust for Daylight Saving Time where and when it is observed.

RESOLUTE BAY A
NUNAVUT

74°43'01.000" N
94°58'10.000" W
67.70 m
2403498
71924
YRB

Download Data

Hourly Data (September 2017)
Hourly Data Report for September 11, 2017
Temp Definition
°C
Dew Point Temp Definition
°C
Rel Hum Definition
%
Wind Dir Definition
10's deg

Wind Spd Definition
km/h
Visibility Definition
km
Stn Press Definition
kPa
Hmdx Definition


Wind Chill Definition


Weather Definition


TIME
00:00 Legend Double Dagger -2.6 -3.1 96 33 21 4.0 99.55   -9 Snow,Fog
01:00 Legend Double Dagger -3.0 -4.0 93 32 16 4.0 99.62   -8 Snow,Fog
02:00 Legend Double Dagger -3.4 -5.0 89 33 17 24.1 99.66   -9 LegendNANA
03:00 Legend Double Dagger -3.3 -4.7 90 34 11 24.1 99.71   -8 Cloudy
04:00 Legend Double Dagger -3.0 -4.5 89 33 6 24.1 99.75   -5 LegendNANA
05:00 Legend Double Dagger -2.0 -3.6 89 30 14 19.3 99.79   -7 Snow
06:00 Legend Double Dagger -2.0 -3.3 90 28 15 19.3 99.82   -7 Snow
07:00 Legend Double Dagger -1.9 -3.1 91 27 14 16.1 99.84   -7 LegendNANA
08:00 Legend Double Dagger -1.6 -2.7 92 27 21 24.1 99.90   -7 Snow
09:00 Legend Double Dagger -1.6 -2.6 93 27 19 24.1 99.93   -7 Snow
10:00 Legend Double Dagger -1.6 -2.2 95 28 15 24.1 99.96   -6 Snow Showers
11:00 Legend Double Dagger -1.7 -2.3 95 27 15 24.1 99.99   -7 Snow Showers
12:00 Legend Double Dagger -1.9 -2.4 96 26 16 0.8 100.02   -7 Snow Showers,Freezing Fog
13:00 Legend Double Dagger -1.6 -2.1 96 27 18 0.4 100.07   -7 Snow Showers,Freezing Fog
14:00 Legend Double Dagger -1.5 -2.0 97 28 19 0.4 100.11   -7 Snow Showers,Freezing Fog
15:00 Legend Double Dagger -1.3 -1.8 97 29 16 3.6 100.15   -6 Snow Showers,Fog
16:00 Legend Double Dagger -1.3 -1.8 97 29 11 6.4 100.21   -5 Snow,Fog
17:00 Legend Double Dagger -1.9 -3.2 90 1 20 24.1 100.28   -8 Snow Showers
18:00 Legend Double Dagger -2.3 -3.9 89 2 17 24.1 100.30   -8 Snow Showers
19:00 Legend Double Dagger -2.8 -4.7 87 3 22 24.1 100.33   -9 Snow Showers
20:00 Legend Double Dagger -2.7 -5.2 83 3 19 24.1 100.37   -8 Snow Showers
21:00 Legend Double Dagger -3.1 -5.6 83 3 13 24.1 100.39   -8 Snow Showers
22:00 Legend Double Dagger -3.4 -6.2 81 5 16 24.1 100.44   -9 LegendNANA
23:00 Legend Double Dagger -3.1 -5.9 81 2 9 24.1 100.45   -7 LegendNANA

Notes on Data Quality.

Legend

  • E = Estimated
  • M = Missing
  • NA = Not Available
  • ‡ = Partner data that is not subject to review by the National Climate Archives
Date modified: